Weather reports worldwide

Advertisment
Dörnick, Germany (10150): temperature & dewpoint: 12.10.2018 03:00:00 - 18.10.2018 03:00:00 (CEST)Dörnick, Germany (10150): temperature 5cm & temperature -5cm: 12.10.2018 03:00:00 - 18.10.2018 03:00:00 (CEST)Dörnick, Germany (10150): temperature -20cm & temperature -100cm: 12.10.2018 03:00:00 - 18.10.2018 03:00:00 (CEST)Dörnick, Germany (10150): wind speed & gusts: 12.10.2018 03:00:00 - 18.10.2018 03:00:00 (CEST)Dörnick, Germany (10150): wind direction: 12.10.2018 03:00:00 - 18.10.2018 03:00:00 (CEST)Dörnick, Germany (10150): reduced air pressure: 12.10.2018 03:00:00 - 18.10.2018 03:00:00 (CEST)Dörnick, Germany (10150): visibility: 12.10.2018 03:00:00 - 18.10.2018 03:00:00 (CEST)Dörnick, Germany (10150): sunshine duration: 12.10.2018 03:00:00 - 18.10.2018 03:00:00 (CEST)Dörnick, Germany (10150): precipitation: 12.10.2018 03:00:00 - 18.10.2018 03:00:00 (CEST)
Date & Time tt [°C] td [°C] tt 5cm [°C] tt -5cm [°C] tt -20cm [°C] tt -100cm [°C] ff [km/h] ff [kn] fx [km/h] fx [kn] dd ppp [hPa] vv [km] sd [min] rr [mm]
18.10.2018 03:00:00 12,2 12,2 11,5 11,7 14,3 13,9 7 4 9 5 WNW 1020,1 0,8 0 0,0
18.10.2018 02:00:00 13,0 12,6 9,3 12,4 14,5 13,9 4 2 12 6 WNW 1020,2 1,3 0 0,0
18.10.2018 01:00:00 13,6 13,4 13,4 14,0 14,6 13,9 8 4 16 9 NW 1020,3 1,7 0 0,0
18.10.2018 00:00:00 13,6 13,2 13,1 13,5 14,8 13,9 11 6 18 10 WNW 1020,2 1,1 0 0,0
17.10.2018 23:00:00 13,6 12,4 11,3 12,7 15,1 13,9 7 4 13 7 WNW 1020,0 2,4 0 0,0
17.10.2018 22:00:00 14,1 12,5 10,8 12,7 15,5 13,9 5 3 12 7 WNW 1020,0 3,5 0 0,0
17.10.2018 21:00:00 14,9 13,3 10,2 13,5 15,9 13,9 5 3 9 5 NW 1019,4 6 0 0,0
17.10.2018 20:00:00 14,0 11,9 10,8 14,3 16,3 13,9 3 2 14 8 W 1019,1 9 0 0,0
17.10.2018 19:00:00 15,4 13,0 11,7 15,4 16,7 13,9 0 0 2 1 N 1018,6 9 0 0,0
17.10.2018 18:00:00 18,9 13,7 16,1 17,9 16,8 13,9 0 0 3 2 N 1018,3 12 14 0,0
17.10.2018 17:00:00 20,8 13,5 20,1 19,7 16,6 13,9 3 2 7 4 E 1018,2 14 39 0,0
17.10.2018 16:00:00 21,9 13,7 23,8 21,7 16,1 13,9 5 3 9 5 E 1018,2 13 60 0,0
17.10.2018 15:00:00 22,2 12,9 23,6 23,2 15,4 13,9 7 4 12 6 SSE 1018,4 14 60 0,0
17.10.2018 14:00:00 21,5 13,3 24,3 22,9 14,7 13,9 8 4 16 9 SSE 1018,7 11 60 0,0
17.10.2018 13:00:00 20,5 13,7 22,8 21,0 13,9 13,9 7 4 12 6 S 1019,0 9 50 0,0
17.10.2018 12:00:00 19,0 13,9 21,6 20,1 13,2 13,9 6 3 10 5 S 1019,4 7 60 0,0
17.10.2018 11:00:00 16,5 13,4 19,6 18,2 12,6 13,9 4 2 10 5 S 1019,4 4,9 52 0,0
17.10.2018 10:00:00 14,0 13,7 14,2 13,7 12,4 13,9 4 2 6 4 ESE 1019,1 2,6 0 0,0
17.10.2018 09:00:00 11,8 11,8 11,3 11,6 12,4 13,9 4 2 4 2 ESE 1019,2 2,1 0 0,0
17.10.2018 08:00:00 9,2 9,1 8,0 9,8 12,5 13,9 0 0 5 3 N 1019,3 0,2 0 0,0
17.10.2018 07:00:00 10,8 10,8 7,8 9,7 12,7 13,8 5 3 7 4 ESE 1018,9 0,2 0 0,0
17.10.2018 06:00:00 11,1 11,1 7,7 10,3 12,9 13,8 3 2 5 3 ESE 1018,9 0,3 0 0,0
17.10.2018 05:00:00 9,6 9,6 7,5 10,0 13,2 13,8 4 2 5 3 ESE 1018,9 0,1 0 0,0
17.10.2018 04:00:00 8,8 8,7 7,3 10,0 13,5 13,8 4 2 5 3 ESE 1019,0 0,1 0 0,0
17.10.2018 03:00:00 9,1 9,1 7,4 10,4 13,8 13,8 3 1 4 2 SE 1019,2 0,1 0 0,0
17.10.2018 02:00:00 10,8 10,8 7,4 11,0 14,2 13,8 3 2 6 3 ESE 1019,3 0,1 0 0,0
17.10.2018 01:00:00 10,6 10,3 8,4 11,6 14,5 13,8 3 1 3 2 E 1019,3 0,1 0 0,0
17.10.2018 00:00:00 13,1 12,8 10,0 12,5 14,8 13,8 4 2 6 3 SE 1019,4 1,0 0 0,0
16.10.2018 23:00:00 12,7 12,0 10,8 13,2 15,1 13,8 0 0 3 2 N 1019,6 2,9 0 0,0
16.10.2018 22:00:00 14,0 13,3 11,3 13,9 15,3 13,8 3 1 4 2 SSW 1019,8 3,1 0 0,0
16.10.2018 21:00:00 14,9 13,4 13,4 14,9 15,5 13,8 4 2 5 3 WNW 1019,8 4,2 0 0,0
16.10.2018 20:00:00 16,1 14,1 14,6 15,6 15,7 13,8 4 2 11 6 WNW 1019,6 4,9 0 0,0
16.10.2018 19:00:00 17,1 14,3 15,7 16,1 15,9 13,8 7 4 12 7 WNW 1019,0 6 0 0,0
16.10.2018 18:00:00 18,4 14,0 17,0 17,3 15,9 13,8 7 4 16 8 W 1018,5 12 0 0,0
16.10.2018 17:00:00 19,9 13,5 19,1 18,7 15,7 13,8 12 6 18 10 WSW 1018,1 16 0 0,0
16.10.2018 16:00:00 20,5 13,9 20,5 19,3 15,4 13,8 11 6 25 13 WSW 1018,0 13 5 0,0
16.10.2018 15:00:00 20,1 13,9 19,9 19,3 15,1 13,8 10 6 17 9 SW 1018,0 11 0 0,0
16.10.2018 14:00:00 19,9 13,8 20,1 19,3 14,7 13,8 13 7 21 11 WSW 1018,0 10 0 0,0
16.10.2018 13:00:00 20,2 13,8 21,3 19,4 14,1 13,8 10 5 17 9 SSW 1018,1 11 0 0,0
16.10.2018 12:00:00 19,7 13,3 20,3 19,4 13,5 13,8 12 7 18 10 SW 1018,1 10 46 0,0
16.10.2018 11:00:00 18,1 12,8 20,5 16,6 12,8 13,8 5 3 9 5 SSE 1018,0 9 58 0,0
16.10.2018 10:00:00 15,5 12,2 18,1 14,1 12,5 13,8 2 1 4 2 SE 1017,8 9 37 0,0
16.10.2018 09:00:00 12,7 11,9 12,6 11,8 12,4 13,8 3 2 7 4 W 1017,5 8 20 0,0
16.10.2018 08:00:00 10,3 10,1 8,5 10,3 12,5 13,8 4 2 6 3 ESE 1016,9 3,6 0 0,0
16.10.2018 07:00:00 10,2 9,9 7,2 10,1 12,7 13,8 3 2 6 3 ESE 1016,5 3,1 0 0,0
16.10.2018 06:00:00 11,5 11,2 8,5 10,8 12,9 13,8 4 2 6 4 ESE 1016,2 4,9 0 0,0
16.10.2018 05:00:00 11,0 10,5 9,5 11,2 13,0 13,8 3 2 4 2 E 1015,9 6 0 0,0
16.10.2018 04:00:00 10,2 9,5 8,9 10,8 13,2 13,8 4 2 5 3 SE 1016,0 6 0 0,0
16.10.2018 03:00:00 10,1 9,4 7,5 10,7 13,5 13,8 0 0 3 2 N 1015,8 6 0 0,0
16.10.2018 02:00:00 10,8 9,8 8,6 11,4 13,7 13,8 0 0 4 2 N 1015,6 6 0 0,0
16.10.2018 01:00:00 10,4 9,6 8,7 11,2 14,1 13,8 0 0 4 2 N 1015,3 7 0 0,0
16.10.2018 00:00:00 11,8 11,4 7,9 11,4 14,4 13,8 4 2 6 3 ESE 1015,0 8 0 0,0
15.10.2018 23:00:00 10,9 9,6 7,8 11,9 14,9 13,8 0 0 4 2 N 1014,9 10 0 0,0
15.10.2018 22:00:00 11,3 9,7 8,9 12,4 15,3 13,8 4 2 5 3 ESE 1014,7 13 0 0,0
15.10.2018 21:00:00 12,6 10,2 9,4 13,2 15,8 13,8 2 1 4 2 SSE 1014,7 15 0 0,0
15.10.2018 20:00:00 13,9 10,6 9,6 14,1 16,3 13,8 3 1 5 3 ESE 1014,4 19 0 0,0
15.10.2018 19:00:00 16,5 11,2 11,7 15,6 16,7 13,8 4 2 10 6 SSE 1014,0 22 0 0,0
15.10.2018 18:00:00 20,4 11,5 18,8 18,2 16,8 13,8 8 5 14 8 S 1013,4 26 50 0,0
15.10.2018 17:00:00 22,4 11,3 21,8 19,7 16,6 13,8 10 5 13 7 S 1012,9 26 60 0,0
15.10.2018 16:00:00 22,8 11,2 24,3 21,3 16,1 13,8 9 5 15 8 S 1012,9 21 60 0,0
15.10.2018 15:00:00 22,6 11,5 24,5 21,4 15,3 13,8 7 4 13 7 SSE 1012,8 25 60 0,0
15.10.2018 14:00:00 21,0 10,4 25,2 20,6 14,4 13,8 6 3 11 6 ESE 1012,9 12 60 0,0
15.10.2018 13:00:00 20,2 10,3 23,2 19,1 13,5 13,8 7 4 10 5 SSE 1013,0 21 60 0,0
15.10.2018 12:00:00 17,7 9,4 20,4 16,8 12,7 13,8 6 3 12 6 SE 1013,4 19 60 0,0
15.10.2018 11:00:00 15,5 9,0 17,4 14,4 12,2 13,7 6 4 13 7 ESE 1013,4 16 60 0,0
15.10.2018 10:00:00 13,6 8,1 14,9 12,1 11,9 13,7 9 5 16 9 SE 1013,2 17 60 0,0
15.10.2018 09:00:00 12,3 8,6 11,9 9,7 12,0 13,7 8 5 17 9 SE 1012,7 12 35 0,0
15.10.2018 08:00:00 11,2 8,4 7,2 9,0 12,3 13,7 6 3 10 5 E 1012,4 13 0 0,0
15.10.2018 07:00:00 11,5 8,3 8,0 9,4 12,5 13,7 6 4 12 7 ESE 1012,3 14 0 0,0
15.10.2018 06:00:00 11,8 8,5 8,3 9,5 12,8 13,7 7 4 11 6 ESE 1012,1 15 0 0,0
15.10.2018 05:00:00 12,6 8,6 9,3 10,1 13,1 13,7 8 4 11 6 SE 1012,0 16 0 0,0
15.10.2018 04:00:00 13,1 8,9 9,6 10,5 13,4 13,7 8 4 12 7 ESE 1012,0 17 0 0,0
15.10.2018 03:00:00 13,7 8,6 9,9 10,7 13,8 13,7 8 4 12 6 SE 1012,0 20 0 0,0
15.10.2018 02:00:00 13,1 9,1 9,0 10,8 14,2 13,7 8 5 11 6 ESE 1011,9 19 0 0,0
15.10.2018 01:00:00 11,4 7,7 6,9 11,5 14,6 13,7 3 2 12 7 E 1011,8 14 0 0,0
15.10.2018 00:00:00 16,1 9,0 12,7 12,8 14,9 13,7 9 5 16 9 SE 1011,7 22 0 0,0
14.10.2018 23:00:00 17,4 9,0 14,2 13,6 15,2 13,7 10 5 21 11 SSE 1011,6 24 0 0,0
14.10.2018 22:00:00 17,9 9,2 15,3 13,9 15,6 13,7 11 6 23 12 SSE 1011,7 24 0 0,0
14.10.2018 21:00:00 17,9 9,5 15,4 14,1 16,0 13,7 9 5 16 9 SE 1011,7 22 0 0,0
14.10.2018 20:00:00 18,4 9,9 16,1 15,1 16,3 13,7 11 6 17 9 SE 1011,4 20 0 0,0
14.10.2018 19:00:00 19,3 10,0 17,3 16,2 16,6 13,7 11 6 23 12 SE 1011,1 20 0 0,0
14.10.2018 18:00:00 20,6 10,2 19,4 18,1 16,7 13,6 12 6 24 13 SSE 1010,8 23 54 0,0
14.10.2018 17:00:00 21,8 10,0 21,5 19,3 16,6 13,6 15 8 25 13 SE 1010,7 16 60 0,0
14.10.2018 16:00:00 21,9 9,9 23,2 20,5 16,1 13,6 15 8 26 14 SE 1010,8 11 60 0,0
14.10.2018 15:00:00 21,5 9,6 23,1 20,7 15,5 13,6 15 8 25 14 SE 1011,1 12 60 0,0
14.10.2018 14:00:00 20,2 9,8 22,7 20,0 14,7 13,6 13 7 21 11 SE 1011,7 16 60 0,0
14.10.2018 13:00:00 18,7 9,7 21,1 18,6 13,9 13,6 12 6 25 14 SSE 1012,4 13 60 0,0
14.10.2018 12:00:00 17,1 9,5 19,3 16,5 13,3 13,6 13 7 24 13 SE 1012,7 12 60 0,0
14.10.2018 11:00:00 15,5 9,3 16,9 14,4 12,9 13,6 16 9 26 14 SSE 1013,0 9 60 0,0
14.10.2018 10:00:00 14,0 8,6 14,9 12,6 12,8 13,6 15 8 27 15 SSE 1013,5 9 60 0,0
14.10.2018 09:00:00 13,0 8,4 12,5 10,8 12,9 13,5 14 8 21 12 SE 1013,6 9 35 0,0
14.10.2018 08:00:00 12,7 8,5 10,6 10,5 13,2 13,5 9 5 19 11 SE 1013,9 12 0 0,0
14.10.2018 07:00:00 12,9 8,6 10,2 10,8 13,5 13,5 9 5 16 9 SE 1014,4 13 0 0,0
14.10.2018 06:00:00 13,8 8,8 11,3 11,4 13,8 13,5 8 4 18 10 SE 1015,0 15 0 0,0
14.10.2018 05:00:00 14,4 8,9 12,0 11,7 14,1 13,5 10 5 18 10 SE 1015,3 17 0 0,0
14.10.2018 04:00:00 14,6 8,6 11,0 12,2 14,4 13,5 9 5 21 11 ESE 1016,0 18 0 0,0
14.10.2018 03:00:00 16,0 8,8 14,1 12,6 14,7 13,5 13 7 19 10 SE 1016,5 22 0 0,0
14.10.2018 02:00:00 17,0 9,0 14,7 13,2 15,1 13,5 12 7 21 11 SSE 1016,8 24 0 0,0
14.10.2018 01:00:00 18,0 9,3 15,6 13,8 15,4 13,5 11 6 23 13 SSE 1017,0 24 0 0,0
14.10.2018 00:00:00 18,5 10,0 15,7 14,0 15,7 13,5 12 6 21 11 SSE 1017,3 25 0 0,0
13.10.2018 23:00:00 18,4 10,7 15,2 14,5 16,1 13,5 8 4 18 10 SE 1017,8 28 0 0,0
13.10.2018 22:00:00 19,4 11,4 16,5 15,1 16,5 13,5 8 5 15 8 SE 1018,1 33 0 0,0
13.10.2018 21:00:00 19,8 12,1 16,6 16,0 16,9 13,5 8 5 14 8 SE 1018,4 35 0 0,0
13.10.2018 20:00:00 20,6 12,6 17,1 16,6 17,4 13,5 6 4 10 6 SE 1018,6 36 0 0,0
13.10.2018 19:00:00 21,8 12,9 19,0 18,0 17,7 13,5 8 4 23 13 SE 1018,7 42 0 0,0
13.10.2018 18:00:00 24,4 12,3 22,9 20,4 17,7 13,4 11 6 24 13 SSE 1018,4 42 56 0,0
13.10.2018 17:00:00 25,5 12,3 25,3 21,6 17,5 13,4 16 9 29 15 S 1018,8 20 60 0,0
13.10.2018 16:00:00 25,6 12,8 26,9 22,8 17,0 13,4 16 9 31 17 S 1019,3 14 60 0,0
13.10.2018 15:00:00 25,5 13,0 26,8 22,4 16,3 13,4 14 8 29 16 S 1019,7 18 60 0,0
13.10.2018 14:00:00 24,7 13,0 26,3 22,5 15,5 13,4 16 9 24 13 SSE 1020,3 25 60 0,0
13.10.2018 13:00:00 23,1 14,1 25,7 20,6 14,6 13,4 7 4 13 7 SE 1021,1 25 60 0,0
13.10.2018 12:00:00 20,8 12,9 23,3 19,3 13,8 13,4 10 5 19 10 SE 1021,5 20 60 0,0
13.10.2018 11:00:00 19,3 12,9 21,1 17,4 13,0 13,4 9 5 16 9 SE 1021,7 18 60 0,0
13.10.2018 10:00:00 17,0 12,1 17,9 14,6 12,6 13,4 7 4 20 11 SE 1021,9 24 60 0,0
13.10.2018 09:00:00 15,2 11,6 15,1 12,3 12,6 13,4 11 6 21 11 SE 1021,8 18 33 0,0
13.10.2018 08:00:00 13,7 11,5 10,3 10,8 12,7 13,4 6 4 12 6 ESE 1021,8 22 0 0,0
13.10.2018 07:00:00 12,8 11,0 9,6 10,9 12,9 13,4 4 2 10 6 SE 1021,5 19 0 0,0
13.10.2018 06:00:00 13,0 11,5 8,7 11,1 13,2 13,4 3 2 9 5 ESE 1021,8 21 0 0,0
13.10.2018 05:00:00 14,0 11,6 9,7 11,5 13,4 13,3 5 3 10 5 SSE 1021,7 26 0 0,0
13.10.2018 04:00:00 14,4 11,5 10,7 11,8 13,6 13,3 7 4 12 7 SSE 1021,4 25 0 0,0
13.10.2018 03:00:00 16,4 11,9 13,5 12,3 13,9 13,3 7 4 13 7 SSE 1021,4 25 0 0,0
13.10.2018 02:00:00 14,0 11,7 9,6 12,0 14,2 13,3 5 3 10 5 SSE 1021,5 20 0 0,0
13.10.2018 01:00:00 13,8 11,4 10,1 12,6 14,5 13,3 6 3 12 7 ESE 1021,4 21 0 0,0
13.10.2018 00:00:00 16,7 12,2 13,7 13,3 14,8 13,3 9 5 11 6 SE 1021,6 32 0 0,0
12.10.2018 23:00:00 17,4 12,5 14,7 13,8 15,1 13,3 9 5 14 8 SE 1021,9 28 0 0,0
12.10.2018 22:00:00 17,3 12,6 14,4 14,1 15,5 13,3 9 5 13 7 SE 1021,7 33 0 0,0
12.10.2018 21:00:00 18,0 12,9 15,4 14,4 15,9 13,3 9 5 12 7 SE 1021,5 38 0 0,0
12.10.2018 20:00:00 15,5 12,3 11,9 15,1 16,3 13,3 5 3 8 5 SE 1021,6 31 0 0,0
12.10.2018 19:00:00 19,0 13,1 14,4 16,7 16,7 13,3 6 4 11 6 SSE 1021,3 33 0 0,0
12.10.2018 18:00:00 21,6 13,5 20,3 19,3 16,7 13,3 8 5 16 9 S 1020,9 35 56 0,0
12.10.2018 17:00:00 22,5 13,1 21,8 20,1 16,5 13,3 11 6 24 13 S 1020,4 41 60 0,0
12.10.2018 16:00:00 23,1 12,7 24,5 21,5 16,0 13,3 15 8 24 13 S 1020,3 16 60 0,0
12.10.2018 15:00:00 23,4 13,2 25,2 21,4 15,2 13,3 16 9 27 15 SSW 1020,0 13 59 0,0
12.10.2018 14:00:00 22,5 12,6 25,0 20,9 14,2 13,3 16 8 24 13 SSW 1019,9 8 60 0,0
12.10.2018 13:00:00 21,9 12,8 24,5 19,4 13,3 13,3 15 8 28 15 SW 1019,9 9 60 0,0
12.10.2018 12:00:00 20,0 11,6 22,0 17,3 12,4 13,3 17 9 27 14 SSW 1020,0 8 60 0,0
12.10.2018 11:00:00 18,0 10,6 19,8 15,0 11,7 13,3 8 5 21 11 S 1019,6 16 60 0,0
12.10.2018 10:00:00 15,9 8,9 16,9 12,6 11,3 13,3 11 6 16 9 SSE 1018,9 15 60 0,0
12.10.2018 09:00:00 13,7 8,4 13,4 9,8 11,3 13,3 8 4 14 7 SE 1018,4 16 34 0,0
12.10.2018 08:00:00 10,9 7,9 7,4 9,2 11,5 13,3 3 1 14 8 SW 1017,6 12 0 0,0
12.10.2018 07:00:00 12,4 8,2 10,4 9,6 11,7 13,2 9 5 13 7 ESE 1016,8 14 0 0,0
12.10.2018 06:00:00 12,0 8,3 7,7 9,6 11,9 13,2 6 3 14 8 ESE 1016,9 12 0 0,0
12.10.2018 05:00:00 13,3 8,5 11,4 10,1 12,1 13,2 10 6 16 9 SE 1016,2 14 0 0,0
12.10.2018 04:00:00 13,3 8,5 10,8 10,2 12,3 13,2 9 5 14 8 SE 1015,9 14 0 0,0
12.10.2018 03:00:00 14,0 9,0 11,9 10,5 12,6 13,2 11 6 14 8 SE 1015,8 14 0 0,0

tt = temperature
td = dewpoint
tt 5cm = temperature 5cm
tt -5cm = temperature -5cm
tt -20cm = temperature -20cm
tt -100cm = temperature -100cm
ff = wind speed
fx = gusts
dd = wind direction
ppp = reduced air pressure
vv = visibility
sd = sunshine duration
rr = precipitation

Next stations